| time (UTC) | temp F | wind direction | speed knots | gust knots | rain 1hr in | rain 24hr in | rain mn in | humidity % | barometer mb |
| 20260903024502 | 80 | 255 | 0.0 | 0.0 | 0.00 | 0.00 | 0.00 | 82 | 1015.5 |
| 20260903023002 | 80 | 255 | 0.0 | 0.0 | 0.00 | 0.00 | 0.00 | 81 | 1015.5 |
| 20260903021502 | 81 | 255 | 0.0 | 0.0 | 0.00 | 0.00 | 0.00 | 80 | 1015.5 |
| 20260903020005 | 81 | 255 | 0.0 | 0.0 | 0.00 | 0.00 | 0.00 | 78 | 1013.6 |
| 20260903014502 | 82 | 255 | 0.0 | 0.0 | 0.00 | 0.00 | 0.00 | 77 | 1015.6 |
| 20260903013001 | 83 | 255 | 0.0 | 0.0 | 0.00 | 0.00 | 0.00 | 75 | 1015.4 |
| 20260903011502 | 83 | 255 | 0.0 | 0.0 | 0.00 | 0.00 | 0.00 | 74 | 1015.3 |
| 20260903010003 | 84 | 255 | 0.0 | 0.0 | 0.00 | 0.00 | 0.00 | 72 | 1015.1 |
| 20260903004502 | 85 | 255 | 0.0 | 0.0 | 0.00 | 0.00 | 0.00 | 71 | 1015.0 |
| 20260903003003 | 86 | 255 | 0.0 | 0.0 | 0.00 | 0.00 | 0.00 | 70 | 1014.9 |
| 20260903001501 | 87 | 255 | 0.0 | 0.0 | 0.00 | 0.00 | 0.00 | 69 | 1014.8 |
| 20260903000004 | 88 | 255 | 0.0 | 0.0 | 0.00 | 0.00 | 0.00 | 67 | 1014.8 |
| 20260903000002 | 88 | 255 | 0.0 | 0.0 | 0.00 | 0.00 | 0.00 | 67 | 1012.9 |
| 20260902234501 | 89 | 255 | 0.0 | 0.0 | 0.00 | 0.00 | 0.00 | 65 | 1014.8 |
| 20260902233004 | 90 | 255 | 0.0 | 1.7 | 0.00 | 0.00 | 0.00 | 64 | 1014.8 |
| 20260902233002 | 90 | 255 | 0.0 | 1.7 | 0.00 | 0.00 | 0.00 | 64 | 1012.8 |
| 20260902231503 | 91 | 259 | 0.0 | 1.7 | 0.00 | 0.00 | 0.00 | 62 | 1014.9 |
| 20260902230004 | 91 | 214 | 0.0 | 0.9 | 0.00 | 0.00 | 0.00 | 61 | 1014.9 |
| 20260902230002 | 91 | 214 | 0.0 | 0.9 | 0.00 | 0.00 | 0.00 | 61 | 1013.0 |
| 20260902224502 | 92 | 250 | 1.7 | 3.5 | 0.00 | 0.00 | 0.00 | 60 | 1015.0 |
| 20260902223002 | 92 | 349 | 0.9 | 2.6 | 0.00 | 0.00 | 0.00 | 59 | 1014.9 |
| 20260902221502 | 93 | 252 | 1.7 | 3.5 | 0.00 | 0.00 | 0.00 | 58 | 1014.9 |
| 20260902220005 | 94 | 262 | 0.9 | 2.6 | 0.00 | 0.00 | 0.00 | 56 | 1013.0 |
| 20260902214502 | 93 | 241 | 0.9 | 3.5 | 0.00 | 0.00 | 0.00 | 56 | 1015.0 |
| 20260902213002 | 94 | 255 | 1.7 | 4.3 | 0.00 | 0.00 | 0.00 | 56 | 1015.2 |
| 20260902211501 | 95 | 250 | 1.7 | 3.5 | 0.00 | 0.00 | 0.00 | 54 | 1013.2 |
| 20260902210005 | 95 | 260 | 0.9 | 3.5 | 0.00 | 0.00 | 0.00 | 54 | 1015.2 |
| 20260902210002 | 95 | 260 | 0.9 | 3.5 | 0.00 | 0.00 | 0.00 | 54 | 1013.2 |
| 20260902204501 | 95 | 286 | 1.7 | 4.3 | 0.00 | 0.00 | 0.00 | 53 | 1015.3 |
| 20260902203002 | 94 | 282 | 2.6 | 7.0 | 0.00 | 0.00 | 0.00 | 53 | 1015.5 |
| 20260902201502 | 96 | 123 | 0.9 | 3.5 | 0.00 | 0.00 | 0.00 | 54 | 1015.5 |
| 20260902200004 | 95 | 264 | 1.7 | 5.2 | 0.00 | 0.00 | 0.00 | 52 | 1015.7 |
| 20260902194501 | 95 | 242 | 1.7 | 5.2 | 0.00 | 0.00 | 0.00 | 53 | 1015.8 |
| 20260902193002 | 95 | 249 | 2.6 | 6.1 | 0.00 | 0.00 | 0.00 | 52 | 1016.1 |
| 20260902191501 | 96 | 351 | 0.9 | 3.5 | 0.00 | 0.00 | 0.00 | 55 | 1016.1 |
| 20260902190004 | 95 | 296 | 1.7 | 5.2 | 0.00 | 0.00 | 0.00 | 54 | 1016.3 |
| 20260902184501 | 95 | 158 | 1.7 | 5.2 | 0.00 | 0.00 | 0.00 | 56 | 1016.3 |
| 20260902183002 | 94 | 252 | 2.6 | 6.1 | 0.00 | 0.00 | 0.00 | 56 | 1016.6 |
| 20260902181502 | 96 | 325 | 1.7 | 8.7 | 0.00 | 0.00 | 0.00 | 53 | 1016.6 |
| 20260902180007 | 95 | 87 | 1.7 | 8.7 | 0.00 | 0.00 | 0.00 | 53 | 1016.8 |
| 20260902180005 | 95 | 87 | 2.6 | 8.7 | 0.00 | 0.00 | 0.00 | 53 | 1014.8 |
| 20260902174502 | 94 | 298 | 3.5 | 9.6 | 0.00 | 0.00 | 0.00 | 55 | 1016.9 |
| 20260902173001 | 94 | 305 | 1.7 | 5.2 | 0.00 | 0.00 | 0.00 | 56 | 1017.0 |
| 20260902171502 | 93 | 110 | 2.6 | 9.6 | 0.00 | 0.00 | 0.00 | 58 | 1017.1 |
| 20260902170004 | 92 | 271 | 0.9 | 7.0 | 0.00 | 0.00 | 0.00 | 58 | 1015.3 |
| 20260902164501 | 92 | 250 | 2.6 | 7.8 | 0.00 | 0.00 | 0.00 | 63 | 1017.3 |
| 20260902163002 | 92 | 92 | 1.7 | 7.0 | 0.00 | 0.00 | 0.00 | 64 | 1017.4 |
| 20260902161503 | 91 | 242 | 3.5 | 9.6 | 0.00 | 0.00 | 0.00 | 63 | 1017.6 |
| 20260902160005 | 91 | 243 | 0.9 | 2.6 | 0.00 | 0.00 | 0.00 | 65 | 1017.7 |
| 20260902160002 | 91 | 243 | 0.0 | 2.6 | 0.00 | 0.00 | 0.00 | 65 | 1015.7 |
| 20260902154503 | 90 | 124 | 0.9 | 4.3 | 0.00 | 0.00 | 0.00 | 69 | 1016.0 |
| 20260902151502 | 88 | 251 | 1.7 | 4.3 | 0.00 | 0.00 | 0.00 | 71 | 1018.0 |
| 20260902150004 | 88 | 320 | 0.0 | 2.6 | 0.00 | 0.00 | 0.00 | 69 | 1018.0 |
| 20260902144502 | 86 | 313 | 0.9 | 2.6 | 0.00 | 0.00 | 0.00 | 72 | 1018.0 |
| 20260902143001 | 85 | 259 | 0.9 | 2.6 | 0.00 | 0.00 | 0.00 | 74 | 1017.9 |
| 20260902141503 | 84 | 262 | 0.9 | 2.6 | 0.00 | 0.00 | 0.00 | 75 | 1018.0 |
| 20260902140003 | 84 | 244 | 0.0 | 1.7 | 0.00 | 0.00 | 0.00 | 76 | 1018.0 |
| 20260902134502 | 82 | 252 | 0.9 | 2.6 | 0.00 | 0.00 | 0.00 | 78 | 1017.8 |
| 20260902133001 | 82 | 266 | 0.0 | 1.7 | 0.00 | 0.00 | 0.00 | 78 | 1017.9 |
| 20260902131501 | 80 | 252 | 1.7 | 2.6 | 0.00 | 0.00 | 0.00 | 81 | 1017.8 |
| 20260902130003 | 79 | 250 | 0.9 | 4.3 | 0.00 | 0.00 | 0.00 | 82 | 1017.8 |
| 20260902124504 | 77 | 257 | 0.0 | 2.6 | 0.00 | 0.00 | 0.00 | 86 | 1017.7 |
| 20260902124501 | 77 | 257 | 0.0 | 2.6 | 0.00 | 0.00 | 0.00 | 86 | 1015.9 |
| 20260902123002 | 76 | 247 | 0.0 | 2.6 | 0.00 | 0.00 | 0.00 | 89 | 1017.7 |
| 20260902121502 | 75 | 136 | 0.0 | 0.9 | 0.00 | 0.00 | 0.00 | 90 | 1017.5 |
| 20260902120003 | 74 | 146 | 0.0 | 0.9 | 0.00 | 0.00 | 0.00 | 91 | 1017.5 |
| 20260902114501 | 73 | 146 | 0.0 | 0.9 | 0.00 | 0.00 | 0.00 | 92 | 1017.3 |
| 20260902111502 | 72 | 146 | 0.0 | 0.9 | 0.00 | 0.00 | 0.00 | 93 | 1017.0 |
| 20260902110005 | 72 | 146 | 0.0 | 0.0 | 0.00 | 0.00 | 0.00 | 93 | 1017.0 |
| 20260902104501 | 72 | 146 | 0.0 | 0.0 | 0.00 | 0.00 | 0.00 | 93 | 1017.0 |
| 20260902103001 | 73 | 149 | 0.0 | 0.0 | 0.00 | 0.00 | 0.00 | 93 | 1017.0 |
| 20260902101502 | 73 | 149 | 0.0 | 0.9 | 0.00 | 0.00 | 0.00 | 92 | 1016.9 |
| 20260902100005 | 73 | 160 | 0.0 | 0.9 | 0.00 | 0.00 | 0.00 | 92 | 1016.9 |
| 20260902100003 | 73 | 160 | 0.0 | 0.9 | 0.00 | 0.00 | 0.00 | 92 | 1015.1 |
| 20260902094501 | 73 | 211 | 0.9 | 1.7 | 0.00 | 0.00 | 0.00 | 92 | 1016.9 |
| 20260902093002 | 74 | 165 | 0.9 | 1.7 | 0.00 | 0.00 | 0.00 | 91 | 1016.8 |
| 20260902091501 | 74 | 160 | 0.9 | 1.7 | 0.00 | 0.00 | 0.00 | 91 | 1016.7 |
| 20260902090002 | 74 | 177 | 0.9 | 3.5 | 0.00 | 0.00 | 0.00 | 91 | 1014.9 |
| 20260902084502 | 74 | 163 | 0.9 | 3.5 | 0.00 | 0.00 | 0.00 | 91 | 1016.4 |
| 20260902083002 | 73 | 157 | 0.0 | 0.0 | 0.00 | 0.00 | 0.00 | 92 | 1016.3 |
| 20260902080003 | 74 | 157 | 0.0 | 0.0 | 0.00 | 0.00 | 0.00 | 91 | 1016.2 |
| 20260902074501 | 74 | 157 | 0.0 | 0.0 | 0.00 | 0.00 | 0.00 | 91 | 1016.2 |
| 20260902073001 | 74 | 157 | 0.0 | 0.0 | 0.00 | 0.00 | 0.00 | 90 | 1016.1 |
| 20260902071502 | 74 | 157 | 0.0 | 0.0 | 0.00 | 0.00 | 0.00 | 90 | 1016.1 |
| 20260902070005 | 74 | 157 | 0.0 | 0.0 | 0.00 | 0.00 | 0.00 | 90 | 1016.0 |
| 20260902070003 | 74 | 157 | 0.0 | 0.0 | 0.00 | 0.00 | 0.00 | 90 | 1014.2 |
| 20260902064501 | 75 | 157 | 0.0 | 0.0 | 0.00 | 0.00 | 0.00 | 90 | 1016.0 |
| 20260902063001 | 75 | 157 | 0.0 | 0.0 | 0.00 | 0.00 | 0.00 | 90 | 1016.1 |
| 20260902061501 | 75 | 157 | 0.0 | 0.9 | 0.00 | 0.00 | 0.00 | 89 | 1016.1 |
| 20260902060007 | 75 | 157 | 0.0 | 0.0 | 0.00 | 0.00 | 0.00 | 89 | 1014.3 |
| 20260902054501 | 76 | 157 | 0.0 | 0.0 | 0.00 | 0.00 | 0.00 | 88 | 1016.2 |
| 20260902053001 | 76 | 157 | 0.0 | 0.0 | 0.00 | 0.00 | 0.00 | 88 | 1016.2 |
| 20260902051501 | 76 | 157 | 0.0 | 0.0 | 0.00 | 0.00 | 0.00 | 88 | 1016.2 |
| 20260902050007 | 76 | 157 | 0.0 | 0.0 | 0.00 | 0.00 | 0.00 | 87 | 1016.2 |
| 20260902050003 | 76 | 157 | 0.0 | 0.0 | 0.00 | 0.00 | 0.00 | 87 | 1014.3 |
| 20260902044503 | 77 | 157 | 0.0 | 0.0 | 0.00 | 0.00 | 0.00 | 87 | 1016.2 |
| 20260902044501 | 77 | 157 | 0.0 | 0.0 | 0.00 | 0.00 | 0.00 | 87 | 1014.3 |
| 20260902043003 | 77 | 157 | 0.0 | 0.0 | 0.00 | 0.00 | 0.00 | 86 | 1016.1 |
| 20260902043001 | 77 | 157 | 0.0 | 0.0 | 0.00 | 0.00 | 0.00 | 86 | 1014.2 |
| 20260902041500 | 77 | 157 | 0.0 | 0.0 | 0.00 | 0.00 | 0.00 | 86 | 1014.3 |
| 20260902040004 | 77 | 157 | 0.0 | 0.0 | 0.00 | 0.00 | 0.00 | 85 | 1014.4 |
| 20260902034503 | 77 | 157 | 0.0 | 0.0 | 0.00 | 0.00 | 0.00 | 86 | 1016.2 |
| 20260902034501 | 77 | 157 | 0.0 | 0.0 | 0.00 | 0.00 | 0.00 | 86 | 1014.3 |
| 20260902033002 | 77 | 157 | 0.0 | 0.0 | 0.00 | 0.00 | 0.00 | 86 | 1016.2 |
| 20260902031503 | 78 | 157 | 0.0 | 0.0 | 0.00 | 0.00 | 0.00 | 85 | 1016.1 |
| 20260902031501 | 78 | 157 | 0.0 | 0.0 | 0.00 | 0.00 | 0.00 | 85 | 1014.3 |
| 20260902030005 | 78 | 157 | 0.0 | 0.0 | 0.00 | 0.00 | 0.00 | 84 | 1016.2 |